Year,Month,Day,Hour,Minute,Value (Times are PST for insolation in W/m^2)
2008,07,05,00,00,0.00
2008,07,05,00,01,0.00
2008,07,05,00,02,0.00
2008,07,05,00,03,0.00
2008,07,05,00,04,0.00
2008,07,05,00,05,0.00
2008,07,05,00,06,0.00
2008,07,05,00,07,0.00
2008,07,05,00,08,0.00
2008,07,05,00,09,0.00
2008,07,05,00,10,0.00
2008,07,05,00,11,0.00
2008,07,05,00,12,0.00
2008,07,05,00,13,0.00
2008,07,05,00,14,0.00
2008,07,05,00,15,0.00
2008,07,05,00,16,0.00
2008,07,05,00,17,0.00
2008,07,05,00,18,0.00
2008,07,05,00,19,0.00
2008,07,05,00,20,0.00
2008,07,05,00,21,0.00
2008,07,05,00,22,0.00
2008,07,05,00,23,0.00
2008,07,05,00,24,0.00
2008,07,05,00,25,0.00
2008,07,05,00,26,0.00
2008,07,05,00,27,0.00
2008,07,05,00,28,0.00
2008,07,05,00,29,0.00
2008,07,05,00,30,0.00
2008,07,05,00,31,0.00
2008,07,05,00,32,0.00
2008,07,05,00,33,0.00
2008,07,05,00,34,0.00
2008,07,05,00,35,0.00
2008,07,05,00,36,0.00
2008,07,05,00,37,0.00
2008,07,05,00,38,0.00
2008,07,05,00,39,0.00
2008,07,05,00,40,0.00
2008,07,05,00,41,0.00
2008,07,05,00,42,0.00
2008,07,05,00,43,0.00
2008,07,05,00,44,0.00
2008,07,05,00,45,0.00
2008,07,05,00,46,0.00
2008,07,05,00,47,0.00
2008,07,05,00,48,0.00
2008,07,05,00,49,0.00
2008,07,05,00,50,0.00
2008,07,05,00,51,0.00
2008,07,05,00,52,0.00
2008,07,05,00,53,0.00
2008,07,05,00,54,0.00
2008,07,05,00,55,0.00
2008,07,05,00,56,0.00
2008,07,05,00,57,0.00
2008,07,05,00,58,0.00
2008,07,05,00,59,0.00
2008,07,05,01,00,0.00
2008,07,05,01,01,0.00
2008,07,05,01,02,0.00
2008,07,05,01,03,0.00
2008,07,05,01,04,0.00
2008,07,05,01,05,0.00
2008,07,05,01,06,0.00
2008,07,05,01,07,0.00
2008,07,05,01,08,0.00
2008,07,05,01,09,0.00
2008,07,05,01,10,0.00
2008,07,05,01,11,0.00
2008,07,05,01,12,0.00
2008,07,05,01,13,0.00
2008,07,05,01,14,0.00
2008,07,05,01,15,0.00
2008,07,05,01,16,0.00
2008,07,05,01,17,0.00
2008,07,05,01,18,0.00
2008,07,05,01,19,0.00
2008,07,05,01,20,0.00
2008,07,05,01,21,0.00
2008,07,05,01,22,0.00
2008,07,05,01,23,0.00
2008,07,05,01,24,0.00
2008,07,05,01,25,0.00
2008,07,05,01,26,0.00
2008,07,05,01,27,0.00
2008,07,05,01,28,0.00
2008,07,05,01,29,0.00
2008,07,05,01,30,0.00
2008,07,05,01,31,0.00
2008,07,05,01,32,0.00
2008,07,05,01,33,0.00
2008,07,05,01,34,0.00
2008,07,05,01,35,0.00
2008,07,05,01,36,0.00
2008,07,05,01,37,0.00
2008,07,05,01,38,0.00
2008,07,05,01,39,0.00
2008,07,05,01,40,0.00
2008,07,05,01,41,0.00
2008,07,05,01,42,0.00
2008,07,05,01,43,0.00
2008,07,05,01,44,0.00
2008,07,05,01,45,0.00
2008,07,05,01,46,0.00
2008,07,05,01,47,0.00
2008,07,05,01,48,0.00
2008,07,05,01,49,0.00
2008,07,05,01,50,0.00
2008,07,05,01,51,0.00
2008,07,05,01,52,0.00
2008,07,05,01,53,0.00
2008,07,05,01,54,0.00
2008,07,05,01,55,0.00
2008,07,05,01,56,0.00
2008,07,05,01,57,0.00
2008,07,05,01,58,0.00
2008,07,05,01,59,0.00
2008,07,05,02,00,0.00
2008,07,05,02,01,0.00
2008,07,05,02,02,0.00
2008,07,05,02,03,0.00
2008,07,05,02,04,0.00
2008,07,05,02,05,0.00
2008,07,05,02,06,0.00
2008,07,05,02,07,0.00
2008,07,05,02,08,0.00
2008,07,05,02,09,0.00
2008,07,05,02,10,0.00
2008,07,05,02,11,0.00
2008,07,05,02,12,0.00
2008,07,05,02,13,0.00
2008,07,05,02,14,0.00
2008,07,05,02,15,0.00
2008,07,05,02,16,0.00
2008,07,05,02,17,0.00
2008,07,05,02,18,0.00
2008,07,05,02,19,0.00
2008,07,05,02,20,0.00
2008,07,05,02,21,0.00
2008,07,05,02,22,0.00
2008,07,05,02,23,0.00
2008,07,05,02,24,0.00
2008,07,05,02,25,0.00
2008,07,05,02,26,0.00
2008,07,05,02,27,0.00
2008,07,05,02,28,0.00
2008,07,05,02,29,0.00
2008,07,05,02,30,0.00
2008,07,05,02,31,0.00
2008,07,05,02,32,0.00
2008,07,05,02,33,0.00
2008,07,05,02,34,0.00
2008,07,05,02,35,0.00
2008,07,05,02,36,0.00
2008,07,05,02,37,0.00
2008,07,05,02,38,0.00
2008,07,05,02,39,0.00
2008,07,05,02,40,0.00
2008,07,05,02,41,0.00
2008,07,05,02,42,0.00
2008,07,05,02,43,0.00
2008,07,05,02,44,0.00
2008,07,05,02,45,0.00
2008,07,05,02,46,0.00
2008,07,05,02,47,0.00
2008,07,05,02,48,0.00
2008,07,05,02,49,0.00
2008,07,05,02,50,0.00
2008,07,05,02,51,0.00
2008,07,05,02,52,0.00
2008,07,05,02,53,0.00
2008,07,05,02,54,0.00
2008,07,05,02,55,0.00
2008,07,05,02,56,0.00
2008,07,05,02,57,0.00
2008,07,05,02,58,0.00
2008,07,05,02,59,0.00
2008,07,05,03,00,0.00
2008,07,05,03,01,0.00
2008,07,05,03,02,0.00
2008,07,05,03,03,0.00
2008,07,05,03,04,0.00
2008,07,05,03,05,0.00
2008,07,05,03,06,0.00
2008,07,05,03,07,0.00
2008,07,05,03,08,0.00
2008,07,05,03,09,0.00
2008,07,05,03,10,0.00
2008,07,05,03,11,0.00
2008,07,05,03,12,0.00
2008,07,05,03,13,0.00
2008,07,05,03,14,0.00
2008,07,05,03,15,0.00
2008,07,05,03,16,0.00
2008,07,05,03,17,0.00
2008,07,05,03,18,0.00
2008,07,05,03,19,0.00
2008,07,05,03,20,0.00
2008,07,05,03,21,0.00
2008,07,05,03,22,0.00
2008,07,05,03,23,0.00
2008,07,05,03,24,0.00
2008,07,05,03,25,0.00
2008,07,05,03,26,0.00
2008,07,05,03,27,0.00
2008,07,05,03,28,0.00
2008,07,05,03,29,0.00
2008,07,05,03,30,0.00
2008,07,05,03,31,0.00
2008,07,05,03,32,0.00
2008,07,05,03,33,0.00
2008,07,05,03,34,0.00
2008,07,05,03,35,0.00
2008,07,05,03,36,0.00
2008,07,05,03,37,0.00
2008,07,05,03,38,0.00
2008,07,05,03,39,0.00
2008,07,05,03,40,0.00
2008,07,05,03,41,0.00
2008,07,05,03,42,0.00
2008,07,05,03,43,0.00
2008,07,05,03,44,0.00
2008,07,05,03,45,0.00
2008,07,05,03,46,0.00
2008,07,05,03,47,0.00
2008,07,05,03,48,0.00
2008,07,05,03,49,0.00
2008,07,05,03,50,0.00
2008,07,05,03,51,0.00
2008,07,05,03,52,0.00
2008,07,05,03,53,0.00
2008,07,05,03,54,0.00
2008,07,05,03,55,0.00
2008,07,05,03,56,0.00
2008,07,05,03,57,0.00
2008,07,05,03,58,0.00
2008,07,05,03,59,0.00
2008,07,05,04,00,0.00
2008,07,05,04,01,0.00
2008,07,05,04,02,0.00
2008,07,05,04,03,0.00
2008,07,05,04,04,0.00
2008,07,05,04,05,0.00
2008,07,05,04,06,0.00
2008,07,05,04,07,0.00
2008,07,05,04,08,0.00
2008,07,05,04,09,0.00
2008,07,05,04,10,0.00
2008,07,05,04,11,0.00
2008,07,05,04,12,0.00
2008,07,05,04,13,0.00
2008,07,05,04,14,0.00
2008,07,05,04,15,0.00
2008,07,05,04,16,0.00
2008,07,05,04,17,0.00
2008,07,05,04,18,0.00
2008,07,05,04,19,0.00
2008,07,05,04,20,0.00
2008,07,05,04,21,0.00
2008,07,05,04,22,0.00
2008,07,05,04,23,0.00
2008,07,05,04,24,0.00
2008,07,05,04,25,0.00
2008,07,05,04,26,0.00
2008,07,05,04,27,0.00
2008,07,05,04,28,0.00
2008,07,05,04,29,0.00
2008,07,05,04,30,0.00
2008,07,05,04,31,0.00
2008,07,05,04,32,0.00
2008,07,05,04,33,0.00
2008,07,05,04,34,0.00
2008,07,05,04,35,0.00
2008,07,05,04,36,0.00
2008,07,05,04,37,0.00
2008,07,05,04,38,0.00
2008,07,05,04,39,0.00
2008,07,05,04,40,0.00
2008,07,05,04,41,0.00
2008,07,05,04,42,0.00
2008,07,05,04,43,0.00
2008,07,05,04,44,0.00
2008,07,05,04,45,0.00
2008,07,05,04,46,0.00
2008,07,05,04,47,0.00
2008,07,05,04,48,0.00
2008,07,05,04,49,0.00
2008,07,05,04,50,0.00
2008,07,05,04,51,0.00
2008,07,05,04,52,0.00
2008,07,05,04,53,0.00
2008,07,05,04,54,0.00
2008,07,05,04,55,0.00
2008,07,05,04,56,0.00
2008,07,05,04,57,0.00
2008,07,05,04,58,0.00
2008,07,05,04,59,0.00
2008,07,05,05,00,0.00
2008,07,05,05,01,0.00
2008,07,05,05,02,0.00
2008,07,05,05,03,0.00
2008,07,05,05,04,0.00
2008,07,05,05,05,0.00
2008,07,05,05,06,0.00
2008,07,05,05,07,0.00
2008,07,05,05,08,0.00
2008,07,05,05,09,0.00
2008,07,05,05,10,0.00
2008,07,05,05,11,0.00
2008,07,05,05,12,0.00
2008,07,05,05,13,0.00
2008,07,05,05,14,0.00
2008,07,05,05,15,0.00
2008,07,05,05,16,0.00
2008,07,05,05,17,0.00
2008,07,05,05,18,0.00
2008,07,05,05,19,0.00
2008,07,05,05,20,0.00
2008,07,05,05,21,0.00
2008,07,05,05,22,0.00
2008,07,05,05,23,0.00
2008,07,05,05,24,0.00
2008,07,05,05,25,0.00
2008,07,05,05,26,0.00
2008,07,05,05,27,0.00
2008,07,05,05,28,3.30
2008,07,05,05,29,5.00
2008,07,05,05,30,5.10
2008,07,05,05,31,7.00
2008,07,05,05,32,7.00
2008,07,05,05,33,7.00
2008,07,05,05,34,7.00
2008,07,05,05,35,7.00
2008,07,05,05,36,7.00
2008,07,05,05,37,7.00
2008,07,05,05,38,7.00
2008,07,05,05,39,7.00
2008,07,05,05,40,8.30
2008,07,05,05,41,9.00
2008,07,05,05,42,9.20
2008,07,05,05,43,11.00
2008,07,05,05,44,11.00
2008,07,05,05,45,11.00
2008,07,05,05,46,11.00
2008,07,05,05,47,11.90
2008,07,05,05,48,12.00
2008,07,05,05,49,12.00
2008,07,05,05,50,12.00
2008,07,05,05,51,13.00
2008,07,05,05,52,14.00
2008,07,05,05,53,14.00
2008,07,05,05,54,14.00
2008,07,05,05,55,14.00
2008,07,05,05,56,14.00
2008,07,05,05,57,15.20
2008,07,05,05,58,16.00
2008,07,05,05,59,17.70
2008,07,05,06,00,18.10
2008,07,05,06,01,19.00
2008,07,05,06,02,19.90
2008,07,05,06,03,21.00
2008,07,05,06,04,22.50
2008,07,05,06,05,24.90
2008,07,05,06,06,26.40
2008,07,05,06,07,28.00
2008,07,05,06,08,29.00
2008,07,05,06,09,31.20
2008,07,05,06,10,32.80
2008,07,05,06,11,33.00
2008,07,05,06,12,33.00
2008,07,05,06,13,33.00
2008,07,05,06,14,33.00
2008,07,05,06,15,33.00
2008,07,05,06,16,34.60
2008,07,05,06,17,35.00
2008,07,05,06,18,34.50
2008,07,05,06,19,33.00
2008,07,05,06,20,33.00
2008,07,05,06,21,34.30
2008,07,05,06,22,35.00
2008,07,05,06,23,35.20
2008,07,05,06,24,37.00
2008,07,05,06,25,37.00
2008,07,05,06,26,38.10
2008,07,05,06,27,39.00
2008,07,05,06,28,39.00
2008,07,05,06,29,39.00
2008,07,05,06,30,39.00
2008,07,05,06,31,40.30
2008,07,05,06,32,43.10
2008,07,05,06,33,46.40
2008,07,05,06,34,48.70
2008,07,05,06,35,49.30
2008,07,05,06,36,52.00
2008,07,05,06,37,55.70
2008,07,05,06,38,60.50
2008,07,05,06,39,67.30
2008,07,05,06,40,73.30
2008,07,05,06,41,82.60
2008,07,05,06,42,92.10
2008,07,05,06,43,100.20
2008,07,05,06,44,108.00
2008,07,05,06,45,119.90
2008,07,05,06,46,123.20
2008,07,05,06,47,129.10
2008,07,05,06,48,136.40
2008,07,05,06,49,122.40
2008,07,05,06,50,98.10
2008,07,05,06,51,97.80
2008,07,05,06,52,102.10
2008,07,05,06,53,112.60
2008,07,05,06,54,113.60
2008,07,05,06,55,120.40
2008,07,05,06,56,124.40
2008,07,05,06,57,125.00
2008,07,05,06,58,118.10
2008,07,05,06,59,115.50
2008,07,05,07,00,113.60
2008,07,05,07,01,112.00
2008,07,05,07,02,108.20
2008,07,05,07,03,108.80
2008,07,05,07,04,101.90
2008,07,05,07,05,97.00
2008,07,05,07,06,98.20
2008,07,05,07,07,104.90
2008,07,05,07,08,109.00
2008,07,05,07,09,109.00
2008,07,05,07,10,104.50
2008,07,05,07,11,100.00
2008,07,05,07,12,96.60
2008,07,05,07,13,90.40
2008,07,05,07,14,90.00
2008,07,05,07,15,98.60
2008,07,05,07,16,115.40
2008,07,05,07,17,142.00
2008,07,05,07,18,142.00
2008,07,05,07,19,175.70
2008,07,05,07,20,189.00
2008,07,05,07,21,164.30
2008,07,05,07,22,163.60
2008,07,05,07,23,153.60
2008,07,05,07,24,152.80
2008,07,05,07,25,159.70
2008,07,05,07,26,164.50
2008,07,05,07,27,172.10
2008,07,05,07,28,181.90
2008,07,05,07,29,191.10
2008,07,05,07,30,196.00
2008,07,05,07,31,192.00
2008,07,05,07,32,192.80
2008,07,05,07,33,193.70
2008,07,05,07,34,203.10
2008,07,05,07,35,188.40
2008,07,05,07,36,181.30
2008,07,05,07,37,172.40
2008,07,05,07,38,169.00
2008,07,05,07,39,159.80
2008,07,05,07,40,150.60
2008,07,05,07,41,138.60
2008,07,05,07,42,131.00
2008,07,05,07,43,123.30
2008,07,05,07,44,114.50
2008,07,05,07,45,104.70
2008,07,05,07,46,95.80
2008,07,05,07,47,87.30
2008,07,05,07,48,79.20
2008,07,05,07,49,72.00
2008,07,05,07,50,67.50
2008,07,05,07,51,62.90
2008,07,05,07,52,61.50
2008,07,05,07,53,59.10
2008,07,05,07,54,58.00
2008,07,05,07,55,59.40
2008,07,05,07,56,60.00
2008,07,05,07,57,62.00
2008,07,05,07,58,62.80
2008,07,05,07,59,65.90
2008,07,05,08,00,67.00
2008,07,05,08,01,67.00
2008,07,05,08,02,68.70
2008,07,05,08,03,69.00
2008,07,05,08,04,69.00
2008,07,05,08,05,69.00
2008,07,05,08,06,69.00
2008,07,05,08,07,69.00
2008,07,05,08,08,70.00
2008,07,05,08,09,72.40
2008,07,05,08,10,75.10
2008,07,05,08,11,78.00
2008,07,05,08,12,81.50
2008,07,05,08,13,85.20
2008,07,05,08,14,90.10
2008,07,05,08,15,93.90
2008,07,05,08,16,98.10
2008,07,05,08,17,101.90
2008,07,05,08,18,107.20
2008,07,05,08,19,113.00
2008,07,05,08,20,118.10
2008,07,05,08,21,124.00
2008,07,05,08,22,128.90
2008,07,05,08,23,134.90
2008,07,05,08,24,141.80
2008,07,05,08,25,149.40
2008,07,05,08,26,160.40
2008,07,05,08,27,171.30
2008,07,05,08,28,181.00
2008,07,05,08,29,187.60
2008,07,05,08,30,193.30
2008,07,05,08,31,198.30
2008,07,05,08,32,200.20
2008,07,05,08,33,202.00
2008,07,05,08,34,202.80
2008,07,05,08,35,205.10
2008,07,05,08,36,208.10
2008,07,05,08,37,212.30
2008,07,05,08,38,222.90
2008,07,05,08,39,238.00
2008,07,05,08,40,252.30
2008,07,05,08,41,255.80
2008,07,05,08,42,250.00
2008,07,05,08,43,241.40
2008,07,05,08,44,230.00
2008,07,05,08,45,228.60
2008,07,05,08,46,220.90
2008,07,05,08,47,210.50
2008,07,05,08,48,208.50
2008,07,05,08,49,216.00
2008,07,05,08,50,202.00
2008,07,05,08,51,202.00
2008,07,05,08,52,199.00
2008,07,05,08,53,191.40
2008,07,05,08,54,196.90
2008,07,05,08,55,280.30
2008,07,05,08,56,316.00
2008,07,05,08,57,407.70
2008,07,05,08,58,574.00
2008,07,05,08,59,600.30
2008,07,05,09,00,643.60
2008,07,05,09,01,700.10
2008,07,05,09,02,707.00
2008,07,05,09,03,709.30
2008,07,05,09,04,701.00
2008,07,05,09,05,701.00
2008,07,05,09,06,701.00
2008,07,05,09,07,701.00
2008,07,05,09,08,620.10
2008,07,05,09,09,410.40
2008,07,05,09,10,399.00
2008,07,05,09,11,399.00
2008,07,05,09,12,350.60
2008,07,05,09,13,345.10
2008,07,05,09,14,302.60
2008,07,05,09,15,287.10
2008,07,05,09,16,273.80
2008,07,05,09,17,272.00
2008,07,05,09,18,273.80
2008,07,05,09,19,276.40
2008,07,05,09,20,281.70
2008,07,05,09,21,291.30
2008,07,05,09,22,303.80
2008,07,05,09,23,315.40
2008,07,05,09,24,326.10
2008,07,05,09,25,341.40
2008,07,05,09,26,354.70
2008,07,05,09,27,358.70
2008,07,05,09,28,355.90
2008,07,05,09,29,364.50
2008,07,05,09,30,344.10
2008,07,05,09,31,338.90
2008,07,05,09,32,346.50
2008,07,05,09,33,355.90
2008,07,05,09,34,357.80
2008,07,05,09,35,403.40
2008,07,05,09,36,426.20
2008,07,05,09,37,384.70
2008,07,05,09,38,360.00
2008,07,05,09,39,402.40
2008,07,05,09,40,475.00
2008,07,05,09,41,492.00
2008,07,05,09,42,306.70
2008,07,05,09,43,309.00
2008,07,05,09,44,309.00
2008,07,05,09,45,326.40
2008,07,05,09,46,341.80
2008,07,05,09,47,343.00
2008,07,05,09,48,343.00
2008,07,05,09,49,343.00
2008,07,05,09,50,343.00
2008,07,05,09,51,607.00
2008,07,05,09,52,763.00
2008,07,05,09,53,665.90
2008,07,05,09,54,602.40
2008,07,05,09,55,330.60
2008,07,05,09,56,370.00
2008,07,05,09,57,396.00
2008,07,05,09,58,717.80
2008,07,05,09,59,868.00
2008,07,05,10,00,466.40
2008,07,05,10,01,425.40
2008,07,05,10,02,396.40
2008,07,05,10,03,397.00
2008,07,05,10,04,365.10
2008,07,05,10,05,328.50
2008,07,05,10,06,309.30
2008,07,05,10,07,316.70
2008,07,05,10,08,352.20
2008,07,05,10,09,369.00
2008,07,05,10,10,384.90
2008,07,05,10,11,393.80
2008,07,05,10,12,394.00
2008,07,05,10,13,380.40
2008,07,05,10,14,374.30
2008,07,05,10,15,411.60
2008,07,05,10,16,424.00
2008,07,05,10,17,424.00
2008,07,05,10,18,434.80
2008,07,05,10,19,478.00
2008,07,05,10,20,592.40
2008,07,05,10,21,686.00
2008,07,05,10,22,686.00
2008,07,05,10,23,379.40
2008,07,05,10,24,384.40
2008,07,05,10,25,402.00
2008,07,05,10,26,363.30
2008,07,05,10,27,354.40
2008,07,05,10,28,346.60
2008,07,05,10,29,340.80
2008,07,05,10,30,336.50
2008,07,05,10,31,339.30
2008,07,05,10,32,343.00
2008,07,05,10,33,347.00
2008,07,05,10,34,352.50
2008,07,05,10,35,343.30
2008,07,05,10,36,325.30
2008,07,05,10,37,314.80
2008,07,05,10,38,314.30
2008,07,05,10,39,320.80
2008,07,05,10,40,337.20
2008,07,05,10,41,361.00
2008,07,05,10,42,355.60
2008,07,05,10,43,354.60
2008,07,05,10,44,340.50
2008,07,05,10,45,324.40
2008,07,05,10,46,322.00
2008,07,05,10,47,328.80
2008,07,05,10,48,326.60
2008,07,05,10,49,352.00
2008,07,05,10,50,352.00
2008,07,05,10,51,840.60
2008,07,05,10,52,1013.00
2008,07,05,10,53,1013.00
2008,07,05,10,54,1013.00
2008,07,05,10,55,1013.00
2008,07,05,10,56,778.80
2008,07,05,10,57,588.60
2008,07,05,10,58,571.00
2008,07,05,10,59,570.40
2008,07,05,11,00,568.00
2008,07,05,11,01,568.00
2008,07,05,11,02,525.60
2008,07,05,11,03,525.90
2008,07,05,11,04,519.80
2008,07,05,11,05,456.90
2008,07,05,11,06,436.50
2008,07,05,11,07,448.00
2008,07,05,11,08,514.70
2008,07,05,11,09,531.00
2008,07,05,11,10,454.50
2008,07,05,11,11,395.30
2008,07,05,11,12,399.00
2008,07,05,11,13,414.30
2008,07,05,11,14,440.00
2008,07,05,11,15,491.40
2008,07,05,11,16,501.00
2008,07,05,11,17,501.00
2008,07,05,11,18,628.20
2008,07,05,11,19,791.00
2008,07,05,11,20,721.00
2008,07,05,11,21,725.20
2008,07,05,11,22,729.00
2008,07,05,11,23,682.90
2008,07,05,11,24,549.00
2008,07,05,11,25,522.00
2008,07,05,11,26,522.00
2008,07,05,11,27,721.10
2008,07,05,11,28,793.00
2008,07,05,11,29,793.00
2008,07,05,11,30,806.50
2008,07,05,11,31,873.00
2008,07,05,11,32,905.50
2008,07,05,11,33,949.20
2008,07,05,11,34,865.00
2008,07,05,11,35,865.00
2008,07,05,11,36,865.00
2008,07,05,11,37,865.00
2008,07,05,11,38,1071.30
2008,07,05,11,39,1062.80
2008,07,05,11,40,1116.00
2008,07,05,11,41,1116.00
2008,07,05,11,42,1116.00
2008,07,05,11,43,1116.00
2008,07,05,11,44,691.60
2008,07,05,11,45,585.20
2008,07,05,11,46,543.00
2008,07,05,11,47,543.00
2008,07,05,11,48,640.70
2008,07,05,11,49,714.00
2008,07,05,11,50,714.00
2008,07,05,11,51,681.50
2008,07,05,11,52,665.50
2008,07,05,11,53,733.00
2008,07,05,11,54,592.10
2008,07,05,11,55,440.00
2008,07,05,11,56,432.00
2008,07,05,11,57,399.30
2008,07,05,11,58,388.80
2008,07,05,11,59,383.50
2008,07,05,12,00,380.40
2008,07,05,12,01,384.90
2008,07,05,12,02,403.40
2008,07,05,12,03,462.60
2008,07,05,12,04,488.70
2008,07,05,12,05,458.60
2008,07,05,12,06,470.10
2008,07,05,12,07,424.20
2008,07,05,12,08,397.90
2008,07,05,12,09,396.00
2008,07,05,12,10,393.50
2008,07,05,12,11,385.60
2008,07,05,12,12,381.20
2008,07,05,12,13,378.50
2008,07,05,12,14,378.00
2008,07,05,12,15,376.50
2008,07,05,12,16,371.00
2008,07,05,12,17,356.70
2008,07,05,12,18,332.30
2008,07,05,12,19,318.10
2008,07,05,12,20,311.30
2008,07,05,12,21,309.10
2008,07,05,12,22,313.00
2008,07,05,12,23,321.50
2008,07,05,12,24,335.50
2008,07,05,12,25,336.40
2008,07,05,12,26,330.40
2008,07,05,12,27,330.70
2008,07,05,12,28,340.80
2008,07,05,12,29,353.50
2008,07,05,12,30,359.00
2008,07,05,12,31,353.60
2008,07,05,12,32,342.40
2008,07,05,12,33,331.20
2008,07,05,12,34,327.20
2008,07,05,12,35,323.40
2008,07,05,12,36,320.50
2008,07,05,12,37,316.60
2008,07,05,12,38,319.30
2008,07,05,12,39,332.10
2008,07,05,12,40,356.50
2008,07,05,12,41,394.50
2008,07,05,12,42,440.30
2008,07,05,12,43,488.70
2008,07,05,12,44,534.00
2008,07,05,12,45,602.80
2008,07,05,12,46,770.00
2008,07,05,12,47,770.00
2008,07,05,12,48,716.40
2008,07,05,12,49,703.00
2008,07,05,12,50,669.70
2008,07,05,12,51,508.30
2008,07,05,12,52,525.50
2008,07,05,12,53,541.30
2008,07,05,12,54,545.00
2008,07,05,12,55,580.90
2008,07,05,12,56,570.30
2008,07,05,12,57,537.50
2008,07,05,12,58,497.40
2008,07,05,12,59,464.40
2008,07,05,13,00,455.00
2008,07,05,13,01,469.00
2008,07,05,13,02,501.70
2008,07,05,13,03,532.40
2008,07,05,13,04,551.00
2008,07,05,13,05,599.40
2008,07,05,13,06,568.30
2008,07,05,13,07,500.20
2008,07,05,13,08,447.90
2008,07,05,13,09,401.30
2008,07,05,13,10,364.60
2008,07,05,13,11,343.50
2008,07,05,13,12,331.70
2008,07,05,13,13,330.70
2008,07,05,13,14,342.10
2008,07,05,13,15,370.50
2008,07,05,13,16,427.20
2008,07,05,13,17,493.50
2008,07,05,13,18,539.90
2008,07,05,13,19,590.90
2008,07,05,13,20,594.10
2008,07,05,13,21,571.60
2008,07,05,13,22,492.80
2008,07,05,13,23,478.00
2008,07,05,13,24,443.00
2008,07,05,13,25,425.00
2008,07,05,13,26,431.10
2008,07,05,13,27,452.20
2008,07,05,13,28,464.90
2008,07,05,13,29,483.00
2008,07,05,13,30,493.80
2008,07,05,13,31,516.40
2008,07,05,13,32,547.90
2008,07,05,13,33,554.00
2008,07,05,13,34,545.30
2008,07,05,13,35,529.30
2008,07,05,13,36,509.60
2008,07,05,13,37,489.50
2008,07,05,13,38,487.00
2008,07,05,13,39,490.30
2008,07,05,13,40,505.60
2008,07,05,13,41,535.70
2008,07,05,13,42,545.70
2008,07,05,13,43,533.00
2008,07,05,13,44,526.10
2008,07,05,13,45,532.60
2008,07,05,13,46,552.00
2008,07,05,13,47,552.00
2008,07,05,13,48,702.60
2008,07,05,13,49,672.00
2008,07,05,13,50,738.00
2008,07,05,13,51,658.90
2008,07,05,13,52,551.40
2008,07,05,13,53,513.80
2008,07,05,13,54,512.30
2008,07,05,13,55,517.00
2008,07,05,13,56,530.90
2008,07,05,13,57,541.40
2008,07,05,13,58,534.80
2008,07,05,13,59,516.60
2008,07,05,14,00,491.50
2008,07,05,14,01,463.10
2008,07,05,14,02,448.40
2008,07,05,14,03,455.30
2008,07,05,14,04,484.90
2008,07,05,14,05,542.70
2008,07,05,14,06,633.00
2008,07,05,14,07,633.00
2008,07,05,14,08,741.00
2008,07,05,14,09,849.00
2008,07,05,14,10,679.80
2008,07,05,14,11,570.60
2008,07,05,14,12,530.70
2008,07,05,14,13,533.50
2008,07,05,14,14,553.00
2008,07,05,14,15,585.50
2008,07,05,14,16,577.40
2008,07,05,14,17,530.10
2008,07,05,14,18,478.50
2008,07,05,14,19,447.60
2008,07,05,14,20,431.40
2008,07,05,14,21,433.10
2008,07,05,14,22,450.90
2008,07,05,14,23,478.00
2008,07,05,14,24,489.00
2008,07,05,14,25,501.90
2008,07,05,14,26,504.40
2008,07,05,14,27,463.60
2008,07,05,14,28,426.30
2008,07,05,14,29,399.60
2008,07,05,14,30,386.60
2008,07,05,14,31,380.70
2008,07,05,14,32,379.00
2008,07,05,14,33,376.60
2008,07,05,14,34,373.30
2008,07,05,14,35,370.70
2008,07,05,14,36,366.20
2008,07,05,14,37,361.90
2008,07,05,14,38,355.70
2008,07,05,14,39,350.80
2008,07,05,14,40,350.00
2008,07,05,14,41,340.20
2008,07,05,14,42,326.00
2008,07,05,14,43,308.10
2008,07,05,14,44,302.00
2008,07,05,14,45,303.10
2008,07,05,14,46,309.70
2008,07,05,14,47,323.90
2008,07,05,14,48,329.00
2008,07,05,14,49,329.00
2008,07,05,14,50,335.00
2008,07,05,14,51,350.40
2008,07,05,14,52,365.40
2008,07,05,14,53,368.50
2008,07,05,14,54,363.20
2008,07,05,14,55,350.60
2008,07,05,14,56,343.00
2008,07,05,14,57,350.30
2008,07,05,14,58,363.90
2008,07,05,14,59,374.50
2008,07,05,15,00,383.50
2008,07,05,15,01,387.50
2008,07,05,15,02,387.00
2008,07,05,15,03,394.30
2008,07,05,15,04,414.70
2008,07,05,15,05,447.80
2008,07,05,15,06,466.00
2008,07,05,15,07,595.00
2008,07,05,15,08,663.20
2008,07,05,15,09,643.00
2008,07,05,15,10,643.00
2008,07,05,15,11,643.00
2008,07,05,15,12,643.00
2008,07,05,15,13,819.00
2008,07,05,15,14,949.60
2008,07,05,15,15,935.70
2008,07,05,15,16,920.70
2008,07,05,15,17,908.70
2008,07,05,15,18,897.30
2008,07,05,15,19,886.00
2008,07,05,15,20,879.70
2008,07,05,15,21,883.50
2008,07,05,15,22,904.60
2008,07,05,15,23,928.00
2008,07,05,15,24,663.80
2008,07,05,15,25,294.00
2008,07,05,15,26,660.90
2008,07,05,15,27,812.00
2008,07,05,15,28,287.90
2008,07,05,15,29,279.30
2008,07,05,15,30,290.30
2008,07,05,15,31,302.80
2008,07,05,15,32,328.40
2008,07,05,15,33,368.00
2008,07,05,15,34,374.00
2008,07,05,15,35,374.00
2008,07,05,15,36,374.00
2008,07,05,15,37,374.00
2008,07,05,15,38,374.00
2008,07,05,15,39,312.30
2008,07,05,15,40,266.70
2008,07,05,15,41,221.00
2008,07,05,15,42,196.40
2008,07,05,15,43,198.70
2008,07,05,15,44,214.00
2008,07,05,15,45,229.40
2008,07,05,15,46,243.00
2008,07,05,15,47,241.60
2008,07,05,15,48,212.80
2008,07,05,15,49,192.40
2008,07,05,15,50,183.80
2008,07,05,15,51,174.20
2008,07,05,15,52,165.80
2008,07,05,15,53,161.20
2008,07,05,15,54,161.60
2008,07,05,15,55,164.40
2008,07,05,15,56,170.40
2008,07,05,15,57,176.60
2008,07,05,15,58,186.20
2008,07,05,15,59,193.80
2008,07,05,16,00,203.00
2008,07,05,16,01,214.00
2008,07,05,16,02,227.20
2008,07,05,16,03,228.50
2008,07,05,16,04,217.00
2008,07,05,16,05,206.00
2008,07,05,16,06,196.90
2008,07,05,16,07,184.40
2008,07,05,16,08,171.10
2008,07,05,16,09,155.50
2008,07,05,16,10,137.90
2008,07,05,16,11,121.10
2008,07,05,16,12,109.90
2008,07,05,16,13,104.90
2008,07,05,16,14,100.50
2008,07,05,16,15,94.30
2008,07,05,16,16,90.20
2008,07,05,16,17,88.00
2008,07,05,16,18,91.00
2008,07,05,16,19,99.50
2008,07,05,16,20,108.30
2008,07,05,16,21,114.40
2008,07,05,16,22,116.00
2008,07,05,16,23,118.20
2008,07,05,16,24,123.00
2008,07,05,16,25,128.90
2008,07,05,16,26,144.10
2008,07,05,16,27,164.40
2008,07,05,16,28,187.90
2008,07,05,16,29,205.00
2008,07,05,16,30,215.30
2008,07,05,16,31,221.90
2008,07,05,16,32,222.70
2008,07,05,16,33,219.00
2008,07,05,16,34,214.90
2008,07,05,16,35,210.80
2008,07,05,16,36,206.80
2008,07,05,16,37,202.40
2008,07,05,16,38,199.80
2008,07,05,16,39,197.00
2008,07,05,16,40,197.90
2008,07,05,16,41,199.50
2008,07,05,16,42,202.90
2008,07,05,16,43,206.40
2008,07,05,16,44,207.90
2008,07,05,16,45,215.70
2008,07,05,16,46,221.20
2008,07,05,16,47,225.50
2008,07,05,16,48,229.20
2008,07,05,16,49,233.40
2008,07,05,16,50,233.70
2008,07,05,16,51,232.00
2008,07,05,16,52,234.40
2008,07,05,16,53,240.30
2008,07,05,16,54,250.30
2008,07,05,16,55,270.10
2008,07,05,16,56,292.00
2008,07,05,16,57,312.40
2008,07,05,16,58,341.20
2008,07,05,16,59,309.60
2008,07,05,17,00,303.10
2008,07,05,17,01,306.00
2008,07,05,17,02,388.30
2008,07,05,17,03,418.00
2008,07,05,17,04,448.00
2008,07,05,17,05,448.00
2008,07,05,17,06,697.30
2008,07,05,17,07,709.70
2008,07,05,17,08,659.90